User: anonymous   Login
Location: Trebic
(49.2170°N, 15.8830°E)
Time: 17:13:12
(UTC+02:00)
Language:

Transit 2A Rocket - Orbit

View from above orbital plane
View from above orbital plane
View from above satellite
View from above satellite

Ground track
Ground track

The orbit data is extracted from the following two-line orbital elements,

1    47U 60007C   19197.49793226 -.00000050  00000-0  14003-4 0  9991
2    47  66.6667 335.9229 0229568 191.6929 167.8794 14.42041988 86548
Epoch (UTC): 16 July 2019 11:57:01
Eccentricity: 0.0229568
inclination: 66.6667°
perigee height: 588 km
apogee height: 915 km
right ascension of ascending node: 335.9229°
argument of perigee: 191.6929°
revolutions per day: 14.42041988
mean anomaly at epoch: 167.8794°
orbit number at epoch: 8654

The dashed part of the orbit path shows where the satellite is in the earth's shadow,  

DLR